[[{"header":{"parameterUnit":"m.s-1","parameterCategory":1,"la1":30.2991,"la2":30.254,"lo1":-89.0895,"lo2":-89.0444,"dy":0.0017,"dx":0.0017,"nx":28,"ny":28,"refTime":"2025-08-18T21:00:00:Z","depth":0,"parameterNumber":2,"parameterNumberName":"U-component_of_WINDS"},"data":[0,0,0,0,0,0,0,0,0,0,0,0,0,0,0,0,0,0,0,0,0,0,0,0,0,0,0,0,0,0,0,0,0,0,0,0,0,0,0,0,0,0,0,0,0,0,0,0,0,0,0,0,0,0,0,0,0,0,1.274,1.2743,0,1.2967,1.2969,1.2972,1.3086,1.3087,1.3087,1.3087,1.3315,1.3321,1.3327,0,0,0,0,0,0,0,0,0,0,0,0,0,1.2406,1.2411,1.274,1.2743,1.2746,1.2966,1.2969,1.2972,1.3086,1.3087,1.3087,1.3087,1.3313,1.332,1.3327,0,0,0,0,0,0,0,0,0,0,0,0,0,1.2583,1.2413,1.274,1.2829,1.284,1.2966,1.2969,1.2973,1.3086,1.3087,1.3087,1.3087,1.3311,1.3319,1.3328,1.3381,0,0,1.3356,1.3359,0,0,0,0,0,0,0,0,1.2573,1.2595,1.2813,1.2824,1.2835,1.2999,1.2935,1.311,1.3086,1.2993,1.3087,1.3087,1.3209,1.3227,1.3269,1.3392,1.3401,1.3356,1.3362,1.3366,1.3368,0,0,0,0,0,0,0,1.256,1.2586,1.283,1.2816,1.283,1.2858,1.2883,1.2969,1.3097,1.3001,1.301,1.3035,1.3215,1.326,1.3275,1.3405,1.3356,1.3364,1.337,1.3373,1.3585,1.3585,0,0,0,0,0,0,1.2534,1.2575,1.2823,1.2837,1.2702,1.2864,1.2892,1.2946,1.3097,1.312,1.3035,1.304,1.3244,1.3264,1.3283,1.3357,1.3366,1.3374,1.3379,1.3585,1.3585,1.3585,0,0,0,0,0,0,1.2526,1.2555,1.2813,1.2709,1.2744,1.287,1.2929,1.295,1.2995,1.3122,1.3146,1.3057,1.3245,1.3271,1.3357,1.3366,1.3378,1.3386,1.3585,1.3585,1.3585,1.3502,0,0,0,0,0,0,1.2516,1.2551,1.2573,1.2708,1.2749,1.2883,1.2929,1.2955,1.3011,1.3019,1.3149,1.3171,1.3247,1.3343,1.3365,1.3379,1.3393,1.3584,1.3585,1.3585,1.3505,1.35,1.3496,0,0,0,0,0,1.2504,1.2539,1.2573,1.2603,1.2778,1.2883,1.2906,1.2995,1.3011,1.3033,1.3116,1.3167,1.3361,1.335,1.3377,1.3393,1.3584,1.3585,1.3585,1.3507,1.3501,1.3496,0,0,0,0,0,0,1.2399,1.2558,1.2598,1.2678,1.2767,1.2902,1.2933,1.2985,1.307,1.3074,1.3179,1.3207,1.3284,1.3348,1.3332,1.3454,1.3478,1.3484,1.3409,1.3405,1.34,1.3383,1.3401,0,0,0,0,0,1.2386,1.2459,1.2594,1.2651,1.2694,1.2806,1.2855,1.2916,1.3011,1.3048,1.3137,1.3227,1.3309,1.336,1.3442,1.3515,1.3546,1.3539,1.3535,1.353,1.3534,1.3579,1.3578,1.3587,1.3587,1.3587,0,0,1.2358,1.2454,1.2494,1.2633,1.2709,1.2782,1.2836,1.2911,1.2966,1.3059,1.3147,1.3215,1.3322,1.3402,1.3442,1.3457,1.3539,1.3531,1.3527,1.3533,1.358,1.3579,1.3578,1.3588,1.3588,1.3587,0,0,1.2346,1.2425,1.2483,1.2559,1.2674,1.2749,1.2762,1.2892,1.2941,1.3031,1.3103,1.317,1.3308,1.3383,1.3439,1.3457,1.3508,1.3481,1.3457,1.35,1.3499,1.3499,1.3507,1.3508,1.3485,1.3484,1.3484,0,1.2296,1.241,1.2506,1.2578,1.2637,1.2728,1.2788,1.2856,1.299,1.303,1.3046,1.3223,1.3301,1.3401,1.3406,1.3448,1.3467,1.3466,1.3492,1.3492,1.3494,1.3503,1.3505,1.348,1.3481,1.3481,1.3482,0,1.2345,1.2423,1.2456,1.2586,1.265,1.2714,1.282,1.2873,1.2929,1.3002,1.3093,1.3191,1.3296,1.3324,1.3378,1.3432,1.3439,1.3471,1.3498,1.3487,1.3497,1.3501,1.3475,1.3476,1.3477,1.3478,0,0,1.227,1.2456,1.2466,1.2528,1.2662,1.2724,1.2794,1.2899,1.2942,1.3033,1.3094,1.3211,1.3243,1.3306,1.337,1.3408,1.3418,1.3437,1.3441,1.3431,1.3486,1.346,1.3462,1.3453,1.3454,1.3455,1.3477,0,1.2276,1.2407,1.2497,1.2592,1.2666,1.2755,1.2816,1.2905,1.2976,1.3049,1.3127,1.3208,1.3244,1.3284,1.3325,1.3408,1.3431,1.3408,1.3511,1.3514,1.3482,1.3468,1.344,1.3456,1.3481,1.3482,1.3483,0,1.23,1.2391,1.2494,1.2625,1.2659,1.2712,1.2817,1.2885,1.2989,1.3038,1.311,1.3176,1.3254,1.3274,1.3384,1.3366,1.3414,1.3462,1.3465,1.3477,1.3497,1.348,1.3463,1.3466,1.349,1.3489,1.3489,0,1.2236,1.2384,1.2466,1.2516,1.2669,1.2705,1.277,1.2874,1.2932,1.3023,1.3062,1.316,1.3214,1.3288,1.3379,1.3385,1.348,1.3507,1.3523,1.352,1.3538,1.3536,1.3529,1.3568,1.3568,1.3568,1.3568,0,1.2234,1.2294,1.244,1.249,1.256,1.2664,1.273,1.2803,1.2895,1.2961,1.3043,1.3103,1.322,1.3294,1.3366,1.3447,1.347,1.3512,1.353,1.3505,1.3499,1.3537,1.3538,1.3569,1.3569,1.3568,1.3568,0,1.2173,1.2274,1.2369,1.2508,1.2544,1.259,1.2708,1.2761,1.2837,1.292,1.2945,1.3065,1.3157,1.3256,1.338,1.3429,1.3506,1.3532,1.3471,1.3482,1.3492,1.349,1.351,1.3518,1.355,1.355,1.3549,0,1.2165,1.2213,1.2359,1.241,1.2474,1.2554,1.2615,1.2719,1.2779,1.2903,1.294,1.3039,1.3124,1.3267,1.3365,1.3461,1.349,1.3491,1.3505,1.3479,1.3491,1.3487,1.3493,1.3485,1.3484,1.3484,1.3483,0,1.2139,1.2188,1.2272,1.2376,1.2446,1.2532,1.2621,1.2658,1.278,1.2843,1.2939,1.3005,1.3135,1.3232,1.3341,1.3408,1.3466,1.3478,1.3487,1.3461,1.3425,1.3446,1.3459,1.3477,1.3478,1.3478,1.3478,1.3479,1.2105,1.2154,1.2264,1.2357,1.2436,1.2518,1.2574,1.266,1.2743,1.2857,1.2914,1.301,1.3116,1.3269,1.3335,1.3412,1.3429,1.3442,1.3445,1.3447,1.3441,1.3413,1.3432,1.3432,1.3433,1.3433,1.3433,0,1.2084,1.2161,1.2246,1.2369,1.2442,1.2493,1.2595,1.2653,1.2737,1.2832,1.2914,1.3026,1.3122,1.3229,1.3332,1.3373,1.3402,1.3396,1.3394,1.3409,1.3419,1.3401,1.3371,1.3371,1.3371,1.3371,1.3371,1.3371,1.2082,1.2168,1.2229,1.2355,1.2432,1.2529,1.2583,1.2659,1.2736,1.2858,1.2939,1.3009,1.3109,1.322,1.331,1.334,1.3373,1.336,1.3396,1.3403,1.3408,1.3413,1.3397,1.3366,1.3366,1.3381,1.3381,1.3381]},{"header":{"parameterUnit":"m.s-1","parameterCategory":1,"la1":30.2991,"la2":30.254,"lo1":-89.0895,"lo2":-89.0444,"dy":0.0017,"dx":0.0017,"nx":28,"ny":28,"refTime":"2025-08-18T21:00:00:Z","depth":0,"parameterNumber":3,"parameterNumberName":"V-component_of_WINDS"},"data":[0,0,0,0,0,0,0,0,0,0,0,0,0,0,0,0,0,0,0,0,0,0,0,0,0,0,0,0,0,0,0,0,0,0,0,0,0,0,0,0,0,0,0,0,0,0,0,0,0,0,0,0,0,0,0,0,0,0,-1.72,-1.7201,0,-1.726,-1.7261,-1.7262,-1.7209,-1.7206,-1.7204,-1.7202,-1.7272,-1.7276,-1.728,0,0,0,0,0,0,0,0,0,0,0,0,0,-1.7047,-1.705,-1.72,-1.7201,-1.7201,-1.726,-1.7261,-1.7262,-1.7209,-1.7206,-1.7204,-1.7201,-1.7271,-1.7276,-1.728,0,0,0,0,0,0,0,0,0,0,0,0,0,-1.7111,-1.7051,-1.72,-1.7182,-1.7181,-1.726,-1.7261,-1.7262,-1.721,-1.7206,-1.7203,-1.72,-1.7269,-1.7275,-1.7281,-1.7384,0,0,-1.7299,-1.7302,0,0,0,0,0,0,0,0,-1.7108,-1.7117,-1.7184,-1.7183,-1.7182,-1.7223,-1.7233,-1.7303,-1.721,-1.7199,-1.7202,-1.7198,-1.7259,-1.7266,-1.7285,-1.7387,-1.739,-1.73,-1.7303,-1.7306,-1.7307,0,0,0,0,0,0,0,-1.7103,-1.7114,-1.7224,-1.7185,-1.7184,-1.7174,-1.7179,-1.7246,-1.7247,-1.72,-1.7196,-1.7203,-1.7258,-1.7279,-1.7286,-1.7391,-1.7299,-1.7305,-1.7308,-1.7311,-1.7583,-1.7586,0,0,0,0,0,0,-1.7099,-1.7111,-1.7222,-1.7226,-1.7136,-1.7179,-1.7185,-1.7214,-1.7246,-1.7248,-1.7206,-1.7201,-1.7271,-1.7279,-1.7288,-1.7412,-1.7306,-1.7311,-1.7315,-1.7579,-1.7584,-1.7588,0,0,0,0,0,0,-1.7096,-1.711,-1.722,-1.7167,-1.718,-1.7185,-1.7218,-1.7217,-1.7237,-1.7251,-1.7252,-1.7227,-1.7268,-1.728,-1.736,-1.7414,-1.7314,-1.7319,-1.7575,-1.7581,-1.7586,-1.7661,0,0,0,0,0,0,-1.7092,-1.7109,-1.7146,-1.7168,-1.7183,-1.7289,-1.7221,-1.722,-1.7247,-1.724,-1.7271,-1.7273,-1.7267,-1.7352,-1.7366,-1.742,-1.7324,-1.757,-1.7577,-1.7584,-1.7654,-1.7668,-1.7681,0,0,0,0,0,-1.7087,-1.7166,-1.7148,-1.7162,-1.7229,-1.7292,-1.7301,-1.729,-1.7251,-1.729,-1.7299,-1.7272,-1.7405,-1.736,-1.7376,-1.7433,-1.7567,-1.7575,-1.7583,-1.7647,-1.7665,-1.768,0,0,0,0,0,0,-1.7154,-1.7169,-1.7149,-1.7237,-1.7263,-1.7282,-1.7331,-1.7309,-1.7348,-1.7341,-1.7328,-1.7336,-1.7421,-1.7435,-1.7384,-1.7535,-1.748,-1.7492,-1.7523,-1.754,-1.7554,-1.755,-1.7329,0,0,0,0,0,-1.7178,-1.7224,-1.7236,-1.7313,-1.7327,-1.7327,-1.7354,-1.7343,-1.737,-1.7382,-1.7397,-1.7427,-1.7476,-1.7508,-1.7554,-1.7654,-1.7662,-1.7701,-1.7715,-1.7726,-1.7737,-1.7794,-1.7813,-1.7615,-1.7615,-1.7615,0,0,-1.723,-1.7244,-1.7275,-1.7327,-1.7346,-1.7397,-1.7337,-1.7393,-1.7432,-1.7391,-1.7468,-1.748,-1.7513,-1.7604,-1.7645,-1.7618,-1.7793,-1.7736,-1.7745,-1.7751,-1.7805,-1.7823,-1.784,-1.7621,-1.762,-1.7619,0,0,-1.7352,-1.7366,-1.7432,-1.7452,-1.748,-1.7479,-1.7495,-1.7517,-1.7523,-1.7599,-1.757,-1.7617,-1.7701,-1.7726,-1.775,-1.788,-1.7858,-1.7896,-1.7968,-1.8023,-1.8039,-1.8053,-1.8103,-1.812,-1.7906,-1.7907,-1.7907,0,-1.7414,-1.7488,-1.747,-1.7529,-1.7554,-1.7516,-1.7585,-1.7606,-1.7649,-1.7668,-1.7636,-1.7741,-1.776,-1.7858,-1.789,-1.7909,-1.793,-1.7894,-1.8037,-1.8051,-1.8064,-1.8111,-1.813,-1.7911,-1.7911,-1.791,-1.791,0,-1.7564,-1.7616,-1.7667,-1.7706,-1.7737,-1.7801,-1.7795,-1.7829,-1.7815,-1.7819,-1.7898,-1.7919,-1.797,-1.7991,-1.7979,-1.8088,-1.8071,-1.8038,-1.7984,-1.8088,-1.8132,-1.815,-1.7918,-1.7916,-1.7915,-1.7914,0,0,-1.7733,-1.776,-1.7779,-1.7798,-1.7825,-1.7867,-1.7929,-1.7975,-1.8006,-1.8036,-1.8091,-1.8163,-1.8133,-1.816,-1.815,-1.8198,-1.8304,-1.816,-1.8161,-1.8189,-1.8429,-1.8456,-1.8477,-1.8288,-1.8291,-1.8294,-1.8427,0,-1.7858,-1.7964,-1.795,-1.8054,-1.8103,-1.8067,-1.8122,-1.8147,-1.8152,-1.8196,-1.8202,-1.8254,-1.8209,-1.8226,-1.8271,-1.8282,-1.8353,-1.8271,-1.8343,-1.8346,-1.8339,-1.8499,-1.8528,-1.8653,-1.8444,-1.8447,-1.8449,0,-1.8019,-1.8052,-1.816,-1.8181,-1.8201,-1.8251,-1.8293,-1.8334,-1.8362,-1.8363,-1.8392,-1.8375,-1.8441,-1.8382,-1.8475,-1.842,-1.8448,-1.8458,-1.8462,-1.8471,-1.8406,-1.8516,-1.8692,-1.8712,-1.8476,-1.8474,-1.8472,0,-1.8134,-1.8207,-1.8281,-1.8297,-1.8323,-1.8359,-1.8372,-1.8396,-1.8425,-1.8462,-1.8481,-1.8527,-1.8553,-1.8589,-1.8586,-1.8542,-1.8682,-1.8622,-1.8687,-1.8688,-1.8721,-1.872,-1.8907,-1.8733,-1.8733,-1.8733,-1.8732,0,-1.8278,-1.8346,-1.8333,-1.838,-1.8456,-1.844,-1.8517,-1.8525,-1.8547,-1.8597,-1.8568,-1.8616,-1.8606,-1.8654,-1.8651,-1.8731,-1.8742,-1.8747,-1.8746,-1.8752,-1.8752,-1.8773,-1.8765,-1.8738,-1.8737,-1.8736,-1.8735,0,-1.8422,-1.8415,-1.8495,-1.8511,-1.8517,-1.8573,-1.8588,-1.8633,-1.8634,-1.8698,-1.8712,-1.8716,-1.8771,-1.8769,-1.8833,-1.8831,-1.893,-1.8917,-1.892,-1.8919,-1.8986,-1.8981,-1.9197,-1.9225,-1.9029,-1.9031,-1.9033,0,-1.8516,-1.8567,-1.8588,-1.8618,-1.8632,-1.868,-1.8709,-1.8695,-1.8727,-1.8762,-1.8804,-1.8856,-1.8897,-1.8988,-1.8999,-1.9048,-1.9039,-1.911,-1.9046,-1.9051,-1.9044,-1.9043,-1.9049,-1.9125,-1.9127,-1.9129,-1.913,0,-1.8684,-1.8678,-1.8719,-1.8759,-1.8793,-1.8825,-1.8854,-1.8881,-1.887,-1.8908,-1.8962,-1.8994,-1.9058,-1.9112,-1.9158,-1.9175,-1.9153,-1.9149,-1.9168,-1.9176,-1.9177,-1.9181,-1.8959,-1.9146,-1.9144,-1.9143,-1.9142,-1.9142,-1.8808,-1.8853,-1.8874,-1.8922,-1.8941,-1.8969,-1.9012,-1.9018,-1.9062,-1.9111,-1.91,-1.9163,-1.9191,-1.9251,-1.9272,-1.9323,-1.9298,-1.9324,-1.9331,-1.9339,-1.9348,-1.9165,-1.9331,-1.933,-1.933,-1.9329,-1.9329,0,-1.8978,-1.8989,-1.9032,-1.9073,-1.911,-1.9081,-1.9112,-1.9146,-1.9201,-1.9227,-1.9267,-1.9332,-1.9383,-1.9396,-1.9447,-1.9485,-1.9477,-1.95,-1.9499,-1.9504,-1.9365,-1.9346,-1.9506,-1.9506,-1.9506,-1.9506,-1.9506,-1.9506,-1.9071,-1.9146,-1.9142,-1.9227,-1.9239,-1.9298,-1.9318,-1.9345,-1.9365,-1.9437,-1.9479,-1.9486,-1.9508,-1.956,-1.9607,-1.961,-1.9632,-1.966,-1.9659,-1.953,-1.9513,-1.9496,-1.9478,-1.9663,-1.9664,-1.9793,-1.9795,-1.9796]}]]